Portsmouth, NH

11:54 AM EDT on June 27, 2017 (GMT -0400)
Pease International Tradeport

Weather History for KPSM - October, 2010

Change the Weather History Date:

Sunday, October 10, 2010

  Actual Average Record
Temperature  
Mean Temperature 54 °F -  
Max Temperature 65 °F 60 °F 82 °F (2011)
Min Temperature 43 °F 42 °F 23 °F (1989)
Degree Days  
Heating Degree Days 12    
Growing Degree Days 4 (Base 50)    
Moisture  
Dew Point 30 °F    
Average Humidity 47    
Maximum Humidity 68    
Minimum Humidity 25    
Precipitation  
Precipitation 0.00 in - - ()
Sea Level Pressure  
Sea Level Pressure 29.77 in    
Wind  
Wind Speed 9 mph (WSW)    
Max Wind Speed 16 mph    
Max Gust Speed 24 mph    
Visibility 10 miles    
Events      
Averages and records for this station are not official NWS values.
T = Trace of Precipitation, MM = Missing Value Source: NWS Daily Summary

Daily Weather History Graph

Daily Weather History Graph

Search for Another Location

Airport or City:

Trip Planner

Search our weather history database for the weather conditions in past years. The results will help you decide how hot, cold, wet, or windy it might be!

Date:

Astronomy

Oct. 10, 2010 Rise Set
Actual Time 6:50 AM EDT 6:08 PM EDT
Civil Twilight 6:22 AM EDT 6:37 PM EDT
Nautical Twilight 5:49 AM EDT 7:10 PM EDT
Astronomical Twilight 5:16 AM EDT 7:43 PM EDT
Moon 10:26 AM EDT (10/10) 7:41 PM EDT (10/10)
Length of Visible Light 12h 14m
Length of Day
11h 18m
Waxing Crescent, 11% of the Moon is Illuminated
Oct 10
Waxing Crescent
Oct 14
First Quarter
Oct 22
Full
Oct 30
Last Quarter
Nov 6
New

Hourly Weather History & Observations

Time (EDT) Temp. Windchill Dew Point Humidity Pressure Visibility Wind Dir Wind Speed Gust Speed Precip Events Conditions
12:55 AM 43.2 °F 38.4 °F 33.1 °F 68% 29.92 in 10.0 mi West 8.1 mph - N/A   Partly Cloudy
1:55 AM 43.5 °F 40.9 °F 31.5 °F 63% 29.92 in 10.0 mi West 4.6 mph - N/A   Clear
2:55 AM 43.3 °F 37.7 °F 32.4 °F 65% 29.89 in 10.0 mi West 10.4 mph - N/A   Partly Cloudy
3:55 AM 43.2 °F 37.0 °F 30.6 °F 61% 29.88 in 10.0 mi West 11.5 mph - N/A   Clear
4:55 AM 43.0 °F 38.2 °F 29.7 °F 59% 29.88 in 10.0 mi West 8.1 mph - N/A   Partly Cloudy
5:55 AM 43.2 °F 36.6 °F 29.5 °F 59% 29.87 in 10.0 mi West 12.7 mph - N/A   Partly Cloudy
6:55 AM 44.8 °F 37.7 °F 28.9 °F 54% 29.87 in 10.0 mi West 16.1 mph 24.2 mph N/A   Mostly Cloudy
7:55 AM 46.2 °F 41.2 °F 29.5 °F 52% 29.88 in 10.0 mi West 10.4 mph - N/A   Mostly Cloudy
8:55 AM 48.2 °F - 29.8 °F 49% 29.86 in 10.0 mi West 9.2 mph - N/A   Mostly Cloudy
9:55 AM 50.7 °F - 29.3 °F 44% 29.85 in 10.0 mi West 11.5 mph - N/A   Mostly Cloudy
10:55 AM 53.1 °F - 28.4 °F 39% 29.83 in 10.0 mi West 11.5 mph - N/A   Mostly Cloudy
11:55 AM 57.2 °F - 28.0 °F 33% 29.79 in 10.0 mi West 10.4 mph 19.6 mph N/A   Mostly Cloudy
12:55 PM 61.5 °F - 26.2 °F 26% 29.74 in 10.0 mi WSW 15.0 mph 20.7 mph N/A   Scattered Clouds
1:55 PM 62.8 °F - 26.6 °F 25% 29.71 in 10.0 mi WSW 13.8 mph 20.7 mph N/A   Scattered Clouds
2:55 PM 64.4 °F - 27.7 °F 25% 29.69 in 10.0 mi West 6.9 mph - N/A   Partly Cloudy
3:55 PM 64.8 °F - 27.7 °F 25% 29.66 in 10.0 mi WSW 11.5 mph - N/A   Partly Cloudy
4:55 PM 64.4 °F - 28.0 °F 25% 29.64 in 10.0 mi WSW 9.2 mph - N/A   Partly Cloudy
5:55 PM 60.8 °F - 28.4 °F 29% 29.63 in 10.0 mi WSW 3.5 mph - N/A   Partly Cloudy
6:55 PM 54.5 °F - 31.5 °F 42% 29.64 in 10.0 mi SSW 6.9 mph - N/A   Partly Cloudy
7:55 PM 52.2 °F - 34.2 °F 50% 29.64 in 10.0 mi SW 5.8 mph - N/A   Clear
8:55 PM 50.9 °F - 35.6 °F 56% 29.65 in 10.0 mi SW 5.8 mph - N/A   Partly Cloudy
9:55 PM 49.1 °F - 34.9 °F 58% 29.65 in 10.0 mi WSW 4.6 mph - N/A   Clear
10:55 PM 47.8 °F - 34.5 °F 60% 29.66 in 10.0 mi WSW 5.8 mph - N/A   Clear
11:55 PM 47.1 °F - 35.4 °F 64% 29.67 in 10.0 mi WSW 6.9 mph - N/A   Clear